JI6FPP-13 Weather Reports


Display with metric or nautical units.
time (UTC)temp
F
wind
direction
speed
MPH
gust
MPH
rain 1hr
in
rain 24hr
in
rain mn
in
humidity
%
barometer
mb
20260504081619 66 330 0.0 1.0 0.00 0.00 0.00 24 1010.0
20260504080619 67 334 3.0 2.0 0.00 0.04 0.00 12 1010.0
20260504050620 73 325 3.0 8.0 0.00 0.33 0.00 3 1009.0
20260504045620 73 289 1.0 2.0 0.00 0.37 0.00 3 1009.0
20260504044620 73 324 2.0 3.0 0.00 0.37 0.00 3 1010.0
20260504043619 73 318 6.0 18.0 0.00 0.41 0.00 2 1010.0
20260504042619 74 321 3.0 8.0 0.00 0.41 0.00 2 1010.0
20260504041619 74 315 5.0 10.0 0.00 0.41 0.00 2 1010.0
20260504040619 75 315 8.0 9.0 0.00 0.41 0.00 2 1009.0
20260504035620 75 315 5.0 5.0 0.00 0.45 0.00 2 1009.0
20260504034620 75 336 1.0 1.0 0.00 0.45 0.00 2 1009.0
20260504033620 75 315 7.0 6.0 0.00 0.49 0.00 2 1009.0
20260504032620 76 355 6.0 5.0 0.00 0.49 0.00 2 1009.0
20260504031619 75 315 3.0 8.0 0.00 0.49 0.00 2 1009.0
20260504030620 74 313 5.0 9.0 0.00 0.49 0.00 2 1009.0
20260504025620 76 315 3.0 8.0 0.00 0.49 0.00 2 1009.0
20260504024620 76 298 2.0 3.0 0.00 0.49 0.00 2 1009.0
20260504023620 75 289 2.0 2.0 0.00 0.49 0.00 2 1009.0
20260504022620 75 324 5.0 6.0 0.00 0.49 0.00 2 1009.0
20260504021619 75 337 3.0 7.0 0.00 0.49 0.00 2 1009.0
20260504020619 74 340 5.0 8.0 0.00 0.54 0.00 2 1010.0
20260504015619 74 329 3.0 9.0 0.00 0.54 0.00 2 1010.0
20260504014619 75 315 3.0 9.0 0.00 0.54 0.00 12 1009.0
20260504013620 74 315 6.0 3.0 0.00 0.54 0.00 18 1009.0
20260504012620 72 317 2.0 3.0 0.00 0.54 0.00 14 1009.0
20260504011619 71 322 5.0 10.0 0.00 0.54 0.00 23 1009.0
20260504010619 70 225 3.0 2.0 0.00 0.54 0.00 24 1009.0
20260504005619 69 247 2.0 5.0 0.00 0.54 0.00 23 1009.0
20260504004619 68 296 3.0 8.0 0.00 0.54 0.00 26 1009.0
20260504003619 67 323 2.0 8.0 0.00 0.54 0.00 29 1008.0
20260504002619 67 22 2.0 5.0 0.00 0.54 0.00 29 1008.0
20260504001620 67 343 2.0 8.0 0.00 0.54 0.00 28 1007.0
20260504000619 68 293 2.0 5.0 0.00 0.54 0.00 27 1007.0
20260503235619 69 354 2.0 3.0 0.00 0.54 0.00 25 1007.0
20260503234619 70 324 3.0 3.0 0.00 0.54 0.00 26 1006.0
20260503233620 71 351 3.0 6.0 0.00 0.54 0.00 26 1007.0
20260503232621 70 317 3.0 8.0 0.00 0.54 0.00 30 1007.0
20260503231621 69 184 2.0 5.0 0.00 0.54 0.00 33 1007.0
20260503230620 67 315 2.0 0.0 0.00 0.54 0.00 33 1006.0
20260503225620 65 297 3.0 6.0 0.00 0.54 0.00 36 1006.0
20260503224619 63 315 2.0 6.0 0.00 0.54 0.00 37 1006.0
20260503223619 61 315 0.0 3.0 0.00 0.54 0.00 38 1006.0
20260503222620 61 339 2.0 2.0 0.00 0.54 0.00 40 1006.0
20260503221620 60 315 1.0 0.0 0.00 0.54 0.00 43 1005.0
20260503220620 59 301 0.0 7.0 0.00 0.54 0.00 44 1004.0
20260503215620 59 321 0.0 3.0 0.00 0.54 0.00 46 1004.0
20260503214619 58 181 0.0 1.0 0.00 0.54 0.00 49 1005.0
20260503213619 58 180 0.0 0.0 0.00 0.54 0.00 52 1005.0
20260503212620 57 180 1.0 0.0 0.00 0.54 0.00 51 1005.0
20260503211621 57 180 3.0 2.0 0.00 0.54 0.00 51 1004.0
20260503210619 56 225 0.0 0.0 0.00 0.54 0.00 54 1003.0
20260503205620 56 180 0.0 0.0 0.00 0.54 0.00 55 1003.0
20260503204620 55 217 0.0 0.0 0.00 0.54 0.00 56 1003.0
20260503203620 56 180 0.0 0.0 0.00 0.54 0.00 56 1002.0
20260503202620 56 180 0.0 0.0 0.00 0.54 0.00 56 1002.0
20260503201620 56 180 0.0 0.0 0.00 0.54 0.00 57 1002.0
20260503200621 56 180 0.0 0.0 0.00 0.54 0.00 57 1003.0
20260503195619 57 180 0.0 0.0 0.00 0.54 0.00 57 1003.0
20260503194619 57 180 0.0 0.0 0.00 0.54 0.00 59 1003.0
20260503193620 57 180 0.0 0.0 0.00 0.54 0.00 62 1003.0
20260503192620 57 180 0.0 0.0 0.00 0.54 0.00 64 1003.0
20260503191620 57 180 0.0 0.0 0.00 0.54 0.00 64 1002.0
20260503190619 57 180 0.0 0.0 0.00 0.54 0.00 64 1003.0
20260503185620 57 180 0.0 0.0 0.00 0.54 0.00 64 1003.0
20260503184620 57 180 0.0 0.0 0.00 0.54 0.00 65 1003.0
20260503183620 58 180 0.0 0.0 0.00 0.54 0.00 65 1003.0
20260503182620 58 180 0.0 0.0 0.00 0.54 0.00 65 1003.0
20260503181621 58 225 0.0 0.0 0.00 0.54 0.00 66 1003.0
20260503180621 58 180 0.0 0.0 0.00 0.54 0.00 66 1003.0
20260503175620 58 180 1.0 0.0 0.00 0.54 0.00 66 1003.0
20260503174620 58 180 1.0 0.0 0.00 0.54 0.00 66 1003.0
20260503173620 58 180 1.0 0.0 0.00 0.54 0.00 65 1002.0
20260503172621 58 185 1.0 0.0 0.00 0.54 0.00 65 1002.0
20260503171619 58 180 0.0 0.0 0.00 0.54 0.00 65 1003.0
20260503170619 58 180 0.0 0.0 0.00 0.54 0.00 65 1003.0
20260503150619 59 180 0.0 5.0 0.00 0.54 0.00 61 1001.0
20260503130618 60 225 0.0 0.0 0.00 0.54 0.54 81 1000.0
20260503110619 64 180 0.0 0.0 0.00 0.54 0.54 93 999.0